Regional Weather Roundup
Issued by NWS

Home | Current Version | Previous Version | Text Only | Print | Product List | Glossary On
Versions: 1 2 3 4 5 6 7 8 9 10 11 12 13 14 15 16 17 18 19 20 21 22 23 24 25 26 27 28 29 30 31 32 33 34 35 36 37 38 39 40 41 42 43 44 45 46 47 48 49 50
823
ASUS43 KMKX 251200
RWRWI

WISCONSIN REGIONAL WEATHER ROUNDUP
NATIONAL WEATHER SERVICE MILWAUKEE/SULLIVAN WI
700 AM CDT WED MAY 25 2016

NOTE: "FAIR" INDICATES FEW OR NO CLOUDS BELOW 12,000 FEET WITH NO
SIGNIFICANT WEATHER AND/OR OBSTRUCTIONS TO VISIBILITY.

WIZ001-002-006>008-014>016-023>028-251300-
NORTHWEST WISCONSIN

CITY           SKY/WX    TMP DP  RH WIND       PRES   REMARKS
SUPERIOR ARPT  FOG       45  45 100 NE9G16    30.01S VSB 1/2
ASHLAND        FOG       49  49 100 NE8       30.02S VSB 1/4
6HR MIN TEMP:  48; 6HR MAX TEMP:  50;

HAYWARD        CLOUDY    54  52  93 N6        29.98R
6HR MIN TEMP:  50; 6HR MAX TEMP:  58;

SIREN          CLOUDY    57  56  97 E3        29.96R FOG
CUMBERLAND     CLOUDY    59  55  88 E3        29.96R
RICE LAKE      CLOUDY    61  57  87 E5        29.98R
CHETEK         CLOUDY    60  58  94 E5        29.96R
LADYSMITH      CLOUDY    58  57  95 CALM      29.99R
EAU CLAIRE     NOT AVBL
MENOMONIE      CLOUDY    60  58  93 E5        29.94R
NEW RICHMOND   CLOUDY    61  55  80 E7        29.92S
OSCEOLA        CLOUDY    63  58  86 E7        29.94S
$$

WIZ003>005-009-010-017-018-251300-
NORTH CENTRAL WISCONSIN

CITY           SKY/WX    TMP DP  RH WIND       PRES   REMARKS
MANITOWISH WTR NOT AVBL
ARBOR VITAE    FOG       59  58  97 NE3       30.01R VSB 1/4
WOODRUFF       FOG       59  58  97 NE3       30.01R VSB 1/4
RHINELANDER    FOG       57  56  96 E9        30.03R VSB 1/4
6HR MIN TEMP:  50; 6HR MAX TEMP:  57;

EAGLE RIVER    FOG       57  57 100 E6        30.02S VSB 1/2
LAND O LAKES   FOG       56  56 100 E6        30.04S VSB 3/4
PHILLIPS       FOG       53  53 100 NE5       29.98S VSB 1/4
TOMAHAWK       CLOUDY    55  54  97 E5        30.01S FOG
MEDFORD        MOSUNNY   57  57 100 E7        29.99R
MERRILL        MOSUNNY   52  52 100 CALM      30.00S
$$

WIZ029-030-035-036-043>047-251300-
CENTRAL WISCONSIN

CITY           SKY/WX    TMP DP  RH WIND       PRES   REMARKS
WAUSAU         PTSUNNY   60  57  89 E8        29.99R FOG
6HR MIN TEMP:  55; 6HR MAX TEMP:  65;

MOSINEE        SUNNY     59  59 100 E7        29.99R
MARSHFIELD     CLOUDY    62  57  83 E6        29.98R
6HR MIN TEMP:  58; 6HR MAX TEMP:  64;

STEVENS POINT  CLOUDY    57  56  94 NE5       30.00R
WAUPACA        SUNNY     60  59  97 N3        29.99R
WAUTOMA        SUNNY     61  57  87 N5        30.00R
6HR MIN TEMP:  53; 6HR MAX TEMP:  61;

WISC RAPIDS    CLOUDY    62  55  77 E7        30.00R
6HR MIN TEMP:  54; 6HR MAX TEMP:  62;

CAMP DOUGLAS   NOT AVBL
$$

WIZ011>013-019>022-031-037>040-048>050-251300-
NORTHEAST WISCONSIN

CITY           SKY/WX    TMP DP  RH WIND       PRES   REMARKS
ANTIGO         FOG       56  56 100 E9        30.03R VSB 1/4
SHAWANO        CLOUDY    60  58  94 E12       30.02R FOG
OCONTO         CLOUDY   N/A N/A N/A NE6       30.01F
STURGEON BAY   NOT AVBL
GREEN BAY      CLOUDY    57  56  96 NE16      30.02R FOG
6HR MIN TEMP:  57; 6HR MAX TEMP:  62;

MANITOWOC      FOG       55  54  94 NE6       30.01R VSB 3/4
APPLETON       FOG       57  57 100 NE10G16   29.99R VSB 1
CLINTONVILLE   FOG       55  55 100 E7        30.01R VSB 1/2
OSHKOSH        SUNNY     62  58  86 NE8       30.00R FOG
6HR MIN TEMP:  56; 6HR MAX TEMP:  63;

$$

WIZ032>034-041-042-053>061-251300-
SOUTHWEST WISCONSIN

CITY           SKY/WX    TMP DP  RH WIND       PRES   REMARKS
LA CROSSE      CLOUDY    64  58  80 E3        29.93R
6HR MIN TEMP:  60; 6HR MAX TEMP:  66;

SPARTA         PTSUNNY   52  51  97 CALM      29.96R
VIROQUA        CLOUDY    64  59  82 E10       29.95S
BOSCOBEL       CLOUDY    62  60  93 NE3       29.95R FOG
6HR MIN TEMP:  56; 6HR MAX TEMP:  62;

PRAIRIE DU CHI CLOUDY    61  59  93 CALM      29.93R FOG
PLATTEVILLE    CLOUDY    66  64  93 S5        29.96R
$$

WIZ056-057-062-063-064-067-068-251300-
SOUTH CENTRAL WISCONSIN

CITY           SKY/WX    TMP DP  RH WIND       PRES   REMARKS
REEDSBURG      MOSUNNY   58  56  96 CALM      29.97R
BARABOO/DELLS  MOSUNNY   61  58  88 CALM      29.97R
LONE ROCK      NOT AVBL
MINERAL POINT  CLOUDY    64  61  88 E5        29.96S
MADISON        PTSUNNY   66  61  84 S3        29.97R
6HR MIN TEMP:  59; 6HR MAX TEMP:  66;

MIDDLETON      SUNNY     64  62  93 CALM      29.97R
WATERTOWN      SUNNY     63  63 100 CALM      29.96R
MONROE         CLOUDY    64  61  88 S7        29.97R
JANESVILLE     SUNNY     66  64  94 SE5       29.97R
$$

WIZ051-052-058>065-066-070>072-251300-
SOUTHEAST WISCONSIN

CITY           SKY/WX    TMP DP  RH WIND       PRES   REMARKS
MILWAUKEE      CLOUDY    67  57  70 CALM      29.99R
6HR MIN TEMP:  60; 6HR MAX TEMP:  67;

WAUKESHA       SUNNY     63  61  94 S2        30.00R
MILWAUKEE/TIMM MOSUNNY   61  57  88 CALM      29.99R FOG
RACINE         MOSUNNY   70  61  73 SW3       30.01R
6HR MIN TEMP:  60; 6HR MAX TEMP:  70;

BURLINGTON     SUNNY     60  58  94 CALM      29.99R
KENOSHA        MOSUNNY   69  62  78 SW6       29.99R
6HR MIN TEMP:  62; 6HR MAX TEMP:  69;

FOND DU LAC    SUNNY     64  59  83 NE5       29.99R
6HR MIN TEMP:  54; 6HR MAX TEMP:  64;

SHEBOYGAN      SUNNY     57  51  80 NE12      30.00R HAZE
6HR MIN TEMP:  53; 6HR MAX TEMP:  59;

WEST BEND      SUNNY     59  59 100 CALM      29.98R
JUNEAU         SUNNY     62  59  90 SE5       29.98R
$$

LSZ147-162-251300-
LAKE SUPERIOR

STATION/POSITION TIME  TEMP    WIND        PRES    WAVE
                       AIR SEA DIR/SP/G            HT/PER
                 (UTC) (F)     (DEG/KT/KT) (MB)    (FT/S)
W MID LAKE BUOY  1050   40 38   50/ 10/ 10 1018.8R   1/ 4
DEVILS ISLAND    1100   44      50/ 16/ 17 1017.9R
SAXON HARBOR     1140   47      30/  3/  3 1016.3F
$$

LMZ867-665-643>646-251300-
LAKE MICHIGAN

STATION/POSITION TIME  TEMP    WIND        PRES    WAVE
                       AIR SEA DIR/SP/G            HT/PER
                 (UTC) (F)     (DEG/KT/KT) (MB)    (FT/S)
CHAMBERS ISLAND  1100   53     360/ 14/ 16 1017.3
N MID LAKE BUOY  1050   47 44  340/  6/  8 1017.0R   1/ 4
NORTHPORT PIER   1100   51     340/  8/ 10 1017.6R
SISTER BAY       1135   51      30/  5/  8   N/A
ALGOMA LAKESHORE 0947           40/  9/ 14   N/A
KEWAUNEE LAKESHO 1100   50      30/ 10/ 14 1015.5R
SHEBOYGAN LAKESH 1100   51     360/ 13/ 13 1015.2F
PORT WASHINGTON  1140   61     190/  1/  4 1015.9R
S MID LAKE BUOY  1050   54 49  160/  8/  8 1014.4F   1
KENOSHA   LAKESH 1100   67     200/  6/  8 1014.6S
$$

TC  - TEMPERATURE IN CELSIUS
VSB - VISIBILITY IN STATUTE MILES
WCI - WIND CHILL INDEX
HX  - HEAT INDEX





USA.gov is the U.S. government's official web portal to all federal, state and local government web resources and services.